• In Czech Republic
  • List of Countries
  • For 7 days
  • Water Temperature
  • Satellite Maps
  • Weather Map
  • Weather Widgets
  • user-avatar
    Login

    Hourly Weather Kipungo

    Today, 26 September, Tuesday

    Time Temperature Precipitation Wind Pressure Humidity
    00:00 +21°C° 0 mm 2 mps 652 mmHg 63%
    01:00 +20°C° 0 mm 2 mps 652 mmHg 70%
    02:00 +20°C° 0 mm 1 mps 652 mmHg 73%
    03:00 +19°C° 0 mm 1 mps 652 mmHg 77%
    04:00 +19°C° 0 mm 1 mps 651 mmHg 80%
    05:00 +20°C° 0 mm 1 mps 652 mmHg 75%
    06:00 +21°C° 0 mm 1 mps 652 mmHg 70%
    07:00 +21°C° 0 mm 0 mps 653 mmHg 61%
    08:00 +26°C° 0 mm 1 mps 654 mmHg 48%
    09:00 +29°C° 0 mm 2 mps 654 mmHg 35%
    10:00 +33°C° 0 mm 3 mps 655 mmHg 21%
    11:00 +35°C° 0 mm 3 mps 655 mmHg 17%
    12:00 +37°C° 0 mm 3 mps 654 mmHg 14%
    13:00 +37°C° 0 mm 3 mps 654 mmHg 13%
    14:00 +37°C° 0 mm 2 mps 654 mmHg 12%
    15:00 +37°C° 0 mm 2 mps 653 mmHg 12%
    16:00 +37°C° 0 mm 2 mps 653 mmHg 11%
    17:00 +35°C° 0 mm 2 mps 653 mmHg 16%
    18:00 +31°C° 0 mm 2 mps 653 mmHg 20%
    19:00 +28°C° 0 mm 2 mps 652 mmHg 25%
    20:00 +27°C° 0 mm 3 mps 653 mmHg 36%
    21:00 +25°C° 0 mm 3 mps 653 mmHg 46%
    22:00 +24°C° 0 mm 3 mps 653 mmHg 57%
    23:00 +23°C° 0 mm 2 mps 653 mmHg 61%

    Tomorrow, 27 September, Wednesday

    Time Temperature Precipitation Wind Pressure Humidity
    00:00 +21°C° 0 mm 2 mps 653 mmHg 66%
    01:00 +21°C° 0 mm 1 mps 652 mmHg 70%
    02:00 +20°C° 0 mm 1 mps 652 mmHg 73%
    03:00 +20°C° 0 mm 1 mps 652 mmHg 76%
    04:00 +19°C° 0 mm 1 mps 652 mmHg 78%
    05:00 +20°C° 0 mm 1 mps 653 mmHg 73%
    06:00 +21°C° 0 mm 1 mps 653 mmHg 68%
    07:00 +22°C° 0 mm 1 mps 654 mmHg 62%
    08:00 +26°C° 0 mm 1 mps 654 mmHg 47%
    09:00 +29°C° 0 mm 2 mps 655 mmHg 31%
    10:00 +34°C° 0 mm 3 mps 656 mmHg 15%
    11:00 +36°C° 0 mm 3 mps 655 mmHg 13%
    12:00 +37°C° 0 mm 3 mps 655 mmHg 11%
    13:00 +39°C° 0 mm 3 mps 654 mmHg 9%
    14:00 +39°C° 0 mm 2 mps 654 mmHg 9%
    15:00 +38°C° 0 mm 2 mps 653 mmHg 9%
    16:00 +37°C° 0 mm 1 mps 653 mmHg 9%
    17:00 +35°C° 0 mm 2 mps 653 mmHg 15%
    18:00 +33°C° 0 mm 3 mps 653 mmHg 20%
    19:00 +29°C° 0 mm 3 mps 653 mmHg 26%
    20:00 +27°C° 0 mm 3 mps 653 mmHg 36%
    21:00 +26°C° 0 mm 3 mps 653 mmHg 45%
    22:00 +24°C° 0 mm 2 mps 654 mmHg 55%
    23:00 +23°C° 0 mm 2 mps 654 mmHg 59%

    Day after tomorrow, 28 September, Thursday

    Time Temperature Precipitation Wind Pressure Humidity
    00:00 +21°C° 0 mm 2 mps 653 mmHg 63%
    01:00 +21°C° 0 mm 1 mps 653 mmHg 67%
    02:00 +21°C° 0 mm 1 mps 653 mmHg 69%
    03:00 +20°C° 0 mm 1 mps 653 mmHg 71%
    04:00 +19°C° 0 mm 1 mps 652 mmHg 74%
    05:00 +21°C° 0 mm 1 mps 653 mmHg 67%
    06:00 +22°C° 0 mm 1 mps 654 mmHg 59%
    07:00 +21°C° 0 mm 0 mps 655 mmHg 52%
    08:00 +27°C° 0 mm 1 mps 655 mmHg 39%
    09:00 +30°C° 0 mm 2 mps 656 mmHg 25%
    10:00 +35°C° 0 mm 3 mps 657 mmHg 12%
    11:00 +37°C° 0 mm 2 mps 657 mmHg 11%
    12:00 +39°C° 0 mm 2 mps 656 mmHg 9%
    13:00 +42°C° 0 mm 1 mps 656 mmHg 8%
    14:00 +41°C° 0 mm 1 mps 655 mmHg 8%
    15:00 +40°C° 0 mm 1 mps 654 mmHg 9%
    16:00 +39°C° 0 mm 1 mps 654 mmHg 9%
    17:00 +37°C° 0 mm 2 mps 654 mmHg 12%
    18:00 +34°C° 0 mm 2 mps 654 mmHg 16%
    19:00 +31°C° 0 mm 2 mps 654 mmHg 19%
    20:00 +29°C° 0 mm 2 mps 654 mmHg 25%
    21:00 +27°C° 0 mm 2 mps 654 mmHg 32%
    22:00 +25°C° 0 mm 2 mps 654 mmHg 39%
    23:00 +24°C° 0.1 mm 2 mps 654 mmHg 43%

    29 September, Friday

    Time Temperature Precipitation Wind Pressure Humidity
    00:00 +23°C° 0.1 mm 1 mps 653 mmHg 47%
    01:00 +19°C° 0.1 mm 0 mps 653 mmHg 50%
    02:00 +21°C° 0 mm 1 mps 652 mmHg 51%
    03:00 +21°C° 0 mm 1 mps 652 mmHg 52%
    04:00 +20°C° 0 mm 1 mps 652 mmHg 53%
    05:00 +21°C° 0.1 mm 1 mps 652 mmHg 48%
    06:00 +22°C° 0.1 mm 1 mps 653 mmHg 43%
    07:00 +23°C° 0.1 mm 1 mps 654 mmHg 39%
    08:00 +27°C° 0.2 mm 1 mps 655 mmHg 31%
    09:00 +30°C° 0.2 mm 1 mps 656 mmHg 23%
    10:00 +35°C° 0.2 mm 2 mps 656 mmHg 15%
    11:00 +37°C° 0 mm 2 mps 656 mmHg 14%
    12:00 +39°C° 0 mm 2 mps 655 mmHg 13%
    13:00 +40°C° 0 mm 1 mps 655 mmHg 12%
    14:00 +39°C° 0 mm 2 mps 654 mmHg 13%
    15:00 +38°C° 0 mm 2 mps 653 mmHg 14%
    16:00 +37°C° 0 mm 2 mps 653 mmHg 15%
    17:00 +35°C° 0.1 mm 2 mps 653 mmHg 20%
    18:00 +31°C° 0.1 mm 2 mps 653 mmHg 24%
    19:00 +29°C° 0.1 mm 2 mps 653 mmHg 29%
    20:00 +28°C° 0.2 mm 2 mps 653 mmHg 33%
    21:00 +26°C° 0.2 mm 2 mps 653 mmHg 38%
    22:00 +25°C° 0.2 mm 2 mps 653 mmHg 43%
    23:00 +24°C° 0.2 mm 2 mps 653 mmHg 46%

    30 September, Saturday

    Time Temperature Precipitation Wind Pressure Humidity
    00:00 +23°C° 0.2 mm 2 mps 652 mmHg 49%
    01:00 +22°C° 0.2 mm 1 mps 652 mmHg 52%
    02:00 +22°C° 0.2 mm 1 mps 652 mmHg 53%
    03:00 +22°C° 0.2 mm 1 mps 652 mmHg 53%
    04:00 +22°C° 0.2 mm 1 mps 652 mmHg 54%
    05:00 +22°C° 0 mm 1 mps 652 mmHg 52%
    06:00 +23°C° 0 mm 1 mps 653 mmHg 51%
    07:00 +23°C° 0 mm 1 mps 653 mmHg 50%
    08:00 +27°C° 0 mm 1 mps 654 mmHg 40%
    09:00 +30°C° 0 mm 1 mps 655 mmHg 30%
    10:00 +34°C° 0 mm 1 mps 656 mmHg 20%
    11:00 +36°C° 0 mm 1 mps 655 mmHg 18%
    12:00 +39°C° 0 mm 1 mps 655 mmHg 16%
    13:00 +41°C° 0 mm 1 mps 655 mmHg 13%
    14:00 +40°C° 0 mm 1 mps 654 mmHg 14%
    15:00 +37°C° 0 mm 1 mps 653 mmHg 15%
    16:00 +36°C° 0 mm 1 mps 653 mmHg 16%
    17:00 +35°C° 0.2 mm 2 mps 653 mmHg 21%
    18:00 +32°C° 0.2 mm 2 mps 653 mmHg 26%
    19:00 +29°C° 0.2 mm 3 mps 653 mmHg 31%
    20:00 +28°C° 0 mm 3 mps 653 mmHg 37%
    21:00 +27°C° 0 mm 3 mps 653 mmHg 42%
    22:00 +25°C° 0 mm 3 mps 654 mmHg 48%
    23:00 +25°C° 0 mm 2 mps 653 mmHg 50%

    1 October, Sunday

    Time Temperature Precipitation Wind Pressure Humidity
    00:00 +24°C° 0 mm 2 mps 653 mmHg 53%
    01:00 +24°C° 0 mm 1 mps 653 mmHg 55%
    02:00 +23°C° 0 mm 1 mps 653 mmHg 57%
    03:00 +23°C° 0 mm 1 mps 653 mmHg 60%
    04:00 +22°C° 0 mm 1 mps 653 mmHg 62%
    05:00 +23°C° 0 mm 1 mps 653 mmHg 60%
    06:00 +23°C° 0 mm 1 mps 654 mmHg 58%
    07:00 +24°C° 0 mm 1 mps 654 mmHg 55%
    08:00 +27°C° 0 mm 1 mps 655 mmHg 45%
    09:00 +30°C° 0 mm 1 mps 655 mmHg 35%
    10:00 +34°C° 0 mm 1 mps 656 mmHg 25%
    11:00 +36°C° 0 mm 1 mps 656 mmHg 21%
    12:00 +39°C° 0 mm 1 mps 655 mmHg 18%
    13:00 +41°C° 0 mm 1 mps 655 mmHg 15%
    14:00 +40°C° 0 mm 1 mps 654 mmHg 16%
    15:00 +37°C° 0 mm 1 mps 654 mmHg 17%
    16:00 +35°C° 0 mm 1 mps 653 mmHg 18%
    17:00 +35°C° 0.2 mm 2 mps 653 mmHg 22%
    18:00 +32°C° 0.2 mm 2 mps 653 mmHg 26%
    19:00 +30°C° 0.2 mm 2 mps 654 mmHg 30%
    20:00 +29°C° 0.1 mm 2 mps 654 mmHg 35%
    21:00 +27°C° 0.1 mm 2 mps 654 mmHg 39%
    22:00 +26°C° 0.1 mm 2 mps 654 mmHg 44%
    23:00 +25°C° 0.1 mm 2 mps 653 mmHg 47%
    Show more